Weather History for CYQL - September, 2013

Change the Weather History Date:

Monday, September 16, 2013

  Actual Average Record
Temperature  
Mean Temperature 68 °F -  
Max Temperature 84 °F 62 °F 86 °F (1998)
Min Temperature 53 °F 37 °F 30 °F (2014)
Cooling Degree Days 4    
Growing Degree Days 18 (Base 50)    
Moisture  
Dew Point 47 °F    
Average Humidity 51    
Maximum Humidity 82    
Minimum Humidity 17    
Precipitation  
Precipitation 0.00 in 0.04 in - ()
Sea Level Pressure  
Sea Level Pressure 29.69 in    
Wind  
Wind Speed 14 mph ()    
Max Wind Speed 31 mph    
Max Gust Speed 41 mph    
Visibility 13.2 miles    
Events Rain    
Averages and records for this station are not official NWS values.
T = Trace of Precipitation, MM = Missing Value Source: Averaged Metar Reports

Daily Weather History Graph

Daily Weather History Graph

Search for Another Location

Airport or City:

Trip Planner

Search our weather history database for the weather conditions in past years. The results will help you decide how hot, cold, wet, or windy it might be!

Date:

Astronomy

Sep. 16, 2013 Rise Set
Actual Time 7:09 AM MDT 7:41 PM MDT
Civil Twilight 6:37 AM MDT 8:13 PM MDT
Nautical Twilight 5:58 AM MDT 8:51 PM MDT
Astronomical Twilight 5:18 AM MDT 9:31 PM MDT
Moon 6:02 PM MDT (9/16) 3:46 AM MDT (9/16)
Length of Visible Light 13h 36m
Length of Day
12h 32m
Waxing Gibbous, 90% of the Moon is Illuminated
Sep 16
Waxing Gibbous
Sep 19
Full
Sep 26
Last Quarter
Oct 4
New
Oct 11
First Quarter

Hourly Weather History & Observations

Time (MDT) Temp. Dew Point Humidity Pressure Visibility Wind Dir Wind Speed Gust Speed Precip Events Conditions
12:00 AM 63 °F 52 °F 58% 29.77 in 10 mi SSE 11.5 mph - -  
12:00 AM 62.6 °F 51.8 °F 68% 29.76 in 9.0 mi SSE 11.5 mph 18.4 mph N/A   Clear
1:00 AM 62.6 °F 51.8 °F 68% 29.74 in 9.0 mi SE 9.2 mph - N/A   Clear
2:00 AM 55.4 °F 50.0 °F 82% 29.74 in 9.0 mi Variable 2.3 mph - N/A   Clear
3:00 AM 59.0 °F 51.8 °F 77% 29.72 in 9.0 mi South 6.9 mph - N/A   Clear
3:40 AM 60.8 °F 51.8 °F 72% 29.71 in 9.0 mi SSW 18.4 mph - N/A   Scattered Clouds
4:00 AM 60.8 °F 51.8 °F 72% 29.71 in 9.0 mi South 8.1 mph - N/A   Partly Cloudy
4:30 AM 62.6 °F 51.8 °F 68% 29.70 in 9.0 mi SSW 19.6 mph - N/A   Mostly Cloudy
5:00 AM 62.6 °F 51.8 °F 68% 29.70 in 9.0 mi SSW 20.7 mph - N/A   Overcast
6:00 AM 58 °F 50 °F 66% 29.74 in 10 mi WSW 11.5 mph - -   Overcast
6:00 AM 57.2 °F 50.0 °F 77% 29.74 in 15.0 mi West 12.7 mph 18.4 mph N/A   Mostly Cloudy
6:40 AM 60.8 °F 50.0 °F 68% 29.71 in 15.0 mi West 11.5 mph - N/A Rain Light Rain Showers
7:00 AM 62.6 °F 51.8 °F 68% 29.71 in 20.0 mi WSW 12.7 mph 19.6 mph N/A   Mostly Cloudy
8:00 AM 66.2 °F 51.8 °F 60% 29.70 in 25.0 mi West 13.8 mph 25.3 mph N/A   Mostly Cloudy
9:00 AM 69.8 °F 51.8 °F 53% 29.70 in 25.0 mi West 11.5 mph 19.6 mph N/A   Mostly Cloudy
10:00 AM 73.4 °F 50.0 °F 44% 29.71 in 20.0 mi WSW 16.1 mph - N/A   Partly Cloudy
11:00 AM 80.6 °F 46.4 °F 30% 29.70 in 20.0 mi WSW 21.9 mph - N/A   Mostly Cloudy
12:00 PM 82.4 °F 44.6 °F 26% 29.66 in 20.0 mi WSW 23.0 mph 31.1 mph N/A   Mostly Cloudy
1:00 PM 82.4 °F 41.0 °F 23% 29.65 in 20.0 mi WSW 31.1 mph 41.4 mph N/A   Partly Cloudy
2:00 PM 84.2 °F 42.8 °F 23% 29.65 in 20.0 mi SW 27.6 mph 38.0 mph N/A   Partly Cloudy
3:00 PM 84.2 °F 42.8 °F 23% 29.64 in 30.0 mi SW 21.9 mph 34.5 mph N/A   Partly Cloudy
4:00 PM 78.8 °F 44.6 °F 30% 29.64 in 30.0 mi WSW 23.0 mph 40.3 mph N/A   Partly Cloudy
5:00 PM 80.6 °F 41.0 °F 24% 29.63 in 30.0 mi WSW 28.8 mph 35.7 mph N/A   Partly Cloudy
6:00 PM 78 °F 42 °F 17% 29.65 in 10 mi West 23.0 mph - -  
6:00 PM 77.0 °F 41.0 °F 28% 29.65 in 30.0 mi WSW 24.2 mph - N/A   Partly Cloudy
7:00 PM 71.6 °F 42.8 °F 35% 29.66 in 30.0 mi West 21.9 mph 32.2 mph N/A   Partly Cloudy
8:00 PM 66.2 °F 44.6 °F 46% 29.65 in 30.0 mi West 16.1 mph 23.0 mph N/A   Partly Cloudy
9:00 PM 64.4 °F 44.6 °F 49% 29.68 in 15.0 mi West 18.4 mph - N/A   Partly Cloudy
10:00 PM 62.6 °F 42.8 °F 48% 29.67 in 15.0 mi WSW 19.6 mph 26.5 mph N/A   Partly Cloudy
11:00 PM 60.8 °F 41.0 °F 48% 29.68 in 9.0 mi West 18.4 mph 28.8 mph N/A   Clear